Location: Stillwell
(40.4602°N, 82.0928°W)
Time: 16:29:56
(UTC-04:00)

Daily predictions for brighter satellites

Satellite Brightness Start Highest point End
(mag) Time Altitude Azimuth Time Altitude Azimuth Time Altitude Azimuth
ATLAS 5 CENTAUR R/B 2.6 20:46:32 10° NNW 20:52:33 68° NE 20:59:03 10° SE
H-2A R/B 3.1 20:50:16 10° S 20:54:07 71° W 20:57:57 10° NNW
Cosmos 1992 Rocket 4.1 20:50:15 10° SSW 20:55:30 85° WNW 21:00:47 10° NNE
COSMOS 2428 3.7 20:51:46 10° SSE 20:56:14 24° ESE 21:00:43 10° NE
Resurs 01 Rocket 1.8 20:55:18 10° S 20:59:44 79° WSW 21:04:13 10° NNW
BREEZE-M DEB (TANK) 4.2 20:58:36 10° WNW 21:01:34 44° N 21:08:45 10° ENE
USA 267 3.3 20:55:11 10° NE 21:01:46 90° ENE 21:08:20 10° SW
Helios 1A 3.4 20:59:43 10° SE 21:03:47 47° ENE 21:07:52 10° N
Cosmos 1939 Rocket 3.8 21:01:19 10° SE 21:04:51 31° ENE 21:08:22 10° N
Atlas Centaur 2 3.3 21:01:12 10° WSW 21:06:36 35° S 21:12:51 11° ESE
CZ-4B DEB 3.6 21:06:09 10° SE 21:08:49 30° ENE 21:11:32 10° N
Cosmos 2322 3.7 21:03:40 10° S 21:09:17 61° ESE 21:14:55 10° NNE
Abrixas rocket 4.4 21:08:49 10° NW 21:11:23 20° N 21:13:55 10° NE
Okean 1-7 4.4 21:08:45 10° SE 21:12:05 22° E 21:15:26 10° NE
Cosmos 1733 Rocket 3.2 21:07:43 10° N 21:12:13 83° W 21:16:39 10° S
SL-16 R/B 3.6 21:07:13 10° SW 21:12:36 43° WNW 21:18:01 10° N
Sich 1 Rocket 4.1 21:08:55 10° N 21:13:12 42° ENE 21:17:31 10° SSE
YAOGAN 6 4.1 21:11:35 13° ESE 21:13:51 21° ENE 21:16:37 10° NNE
OAO 3 Rocket 4.5 21:16:33 10° WSW 21:20:41 28° SSW 21:24:12 13° SE
Cosmos 2026 Rocket 4.5 21:15:05 10° NNW 21:21:12 62° W 21:27:11 10° S
Cosmos 1862 Rocket 4.0 21:19:14 10° SSW 21:23:40 68° W 21:28:09 10° N
Cosmos 968 Rocket 3.5 21:20:10 10° NNW 21:25:24 79° ENE 21:30:31 11° SSE
CZ-4C R/B 4.2 21:20:06 10° NNW 21:25:50 26° NE 21:31:55 10° E
Cosmos 1844 Rocket 3.6 21:21:02 10° N 21:26:04 34° ENE 21:29:48 16° ESE
Meteor 2-10 Rocket 3.7 21:20:20 10° S 21:26:08 74° E 21:31:52 10° NNE
Cosmos 2237 Rocket 3.8 21:26:55 14° ESE 21:27:21 14° E 21:30:05 10° ENE
Spot 2 Rocket 4.5 21:23:13 10° S 21:28:07 47° W 21:33:01 10° NNW
Cosmos 2278 Rocket 4.0 21:28:34 10° N 21:32:20 18° NE 21:35:33 12° E
Okean 2 Rocket 4.1 21:29:11 10° NNE 21:33:09 29° ENE 21:35:19 20° ESE
Cosmos 2333 Rocket 3.3 21:32:00 15° SE 21:35:11 24° E 21:39:40 10° NE
USA 234 3.8 21:30:18 14° ESE 21:35:49 49° NNE 21:42:03 10° NW
Lacrosse 4 Rocket 4.2 21:33:31 10° WNW 21:35:55 14° WSW 21:38:18 10° SW
Helios 1B rocket 2.6 21:34:06 10° N 21:38:13 77° WNW 21:42:19 10° SSW
Cosmos 1703 Rocket 3.5 21:40:19 10° S 21:44:44 76° E 21:49:08 10° N
Envisat 3.2 21:43:20 10° S 21:48:24 70° WSW 21:53:29 10° NNW
Cosmos 2219 Rocket 2.6 21:43:22 10° S 21:48:28 38° ESE 21:53:37 10° NE
Meteor 1-29 3.5 21:47:18 10° N 21:50:43 60° WNW 21:54:05 10° SSW
USA 186 4.2 21:50:05 10° SW 21:52:15 19° W 21:54:31 10° NW
SPOT 5 3.6 21:57:52 27° ESE 21:59:26 34° ENE 22:03:33 10° N
SeaSat 1 4.0 21:58:47 18° E 22:00:47 23° NE 22:04:35 10° N
NOSS 0 Rocket 4.4 22:00:21 21° SSE 22:03:42 37° ESE 22:09:16 10° NE
ERS-1 Rocket 2.9 22:01:58 25° SSE 22:04:55 79° ENE 22:09:57 10° N
H-2A R/B 3.1 22:06:42 24° E 22:07:51 26° ENE 22:11:53 10° NNE
Cosmos 2151 Rocket 4.4 22:04:00 10° NNE 22:08:03 33° ENE 22:08:40 31° E
Milstar 3 4.3 22:03:27 10° WSW 22:09:02 20° SSW 22:11:48 16° S
Cosmos 2263 Rocket 4.2 22:04:51 10° NW 22:09:04 23° W 22:13:19 10° SSW
Cosmos 2266 Rocket 4.2 22:04:30 10° N 22:10:49 75° W 22:16:21 14° S
Cosmos 1570 Rocket 4.0 22:11:35 23° S 22:14:42 57° ESE 22:19:53 10° NNE
NOSS 3-1 (C) 3.2 22:12:38 10° SSW 22:18:19 78° ESE 22:24:43 10° NE
Cosmos 2221 Rocket 4.0 22:14:06 10° SSW 22:18:25 61° W 22:22:50 10° N
Cosmos 1782 2.7 22:18:24 46° S 22:19:30 77° E 22:23:31 10° N
MetOp-B 4.1 22:17:11 35° SSE 22:19:31 73° ENE 22:24:52 10° N
YAOGAN 11 4.0 22:20:58 48° SE 22:22:03 72° ENE 22:26:22 10° N
H-2A R/B 3.6 22:27:25 22° ENE 22:27:25 22° ENE 22:30:41 10° NNE
Cosmos 2208 Rocket 3.9 22:25:07 28° S 22:27:58 69° ESE 22:33:16 10° NNE
Cosmos 1346 Rocket 3.6 22:31:35 37° ENE 22:31:35 37° ENE 22:34:29 10° NNE
Cosmos 2360 Rocket 4.4 22:26:12 10° WSW 22:30:54 26° NW 22:35:39 10° N
Terra 3.2 22:32:31 24° ENE 22:32:39 24° ENE 22:36:27 10° NNE
Meteor 1-27 Rocket 3.9 22:33:11 45° SE 22:34:11 50° E 22:39:33 10° NNE
NOSS 3-1 (A) 3.2 22:30:27 10° SSW 22:36:09 76° ESE 22:42:34 10° NE
ATLAS 5 CENTAUR R/B 4.3 22:32:14 10° WNW 22:36:54 23° WSW 22:41:36 11° SSW
ATLAS 2AS CENTAUR R/B 4.3 22:39:31 21° E 22:39:31 21° E 22:43:30 10° ENE
COSMOS 2428 3.7 22:34:42 10° SW 22:40:09 47° WNW 22:45:40 10° NNE
Cosmos 1244 Rocket 4.4 22:34:26 10° N 22:40:45 88° E 22:43:18 39° S
ARGOS 3.0 22:41:15 48° SSE 22:42:49 90° WSW 22:48:14 10° NNW
NOAA 11 4.4 22:41:21 35° S 22:43:38 66° WSW 22:49:06 10° NNW
Cosmos 1898 Rocket 4.1 22:39:13 10° N 22:44:06 40° ENE 22:44:33 39° ENE
Cosmos 1980 3.6 22:42:14 42° S 22:44:07 70° ESE 22:49:45 10° NNE
SL-08 R/B 4.5 22:40:00 10° N 22:46:04 62° E 22:47:23 50° SE
Cosmos 1553 Rocket 3.9 22:46:05 47° SSE 22:47:50 67° E 22:54:00 10° NNE
Cosmos 1300 Rocket 4.2 22:44:00 10° N 22:47:37 43° NE 22:47:37 43° NE
Cosmos 1844 3.8 22:42:39 10° NNW 22:48:17 70° WSW 22:49:48 48° S
Cosmos 1606 3.2 22:48:19 52° WSW 22:48:39 54° W 22:52:23 10° N
Abrixas rocket 3.6 22:45:32 10° NW 22:47:59 37° NNW 22:47:59 37° NNW
SL-16 R/B 3.5 22:53:20 25° ENE 22:53:20 25° ENE 22:56:19 10° NE
SWAS 4.4 22:49:20 10° NNW 22:53:29 80° N 22:53:29 80° N
Cosmos 2084 3.6 22:51:24 10° NW 22:54:45 63° WNW 22:54:45 63° WNW
Atlas Centaur 2 3.6 22:49:34 10° WSW 22:55:28 31° SSW 22:55:28 31° SSW
SPOT 1/Viking Rocket 3.4 22:55:00 65° SSE 22:55:47 88° ENE 23:01:02 10° NNW
ATLAS 3B R/B 4.4 22:54:42 10° NNW 22:59:55 22° NE 23:03:13 16° ENE
Meteor 1-11 Rocket 3.5 22:57:48 10° N 23:03:22 84° E 23:04:01 70° SSE
MOS 1-B Rocket 4.1 23:02:57 44° SSW 23:04:39 62° WSW 23:10:12 10° NNW
SL-08 RB Rocket 3.9 23:05:09 62° WSW 23:05:21 63° W 23:09:52 10° NNW
ATLAS CENTAUR R/B 3.8 23:12:44 14° NE 23:12:44 14° NE 23:13:20 10° NE
Cosmos 1844 Rocket 3.9 23:04:56 10° NW 23:09:54 34° WSW 23:11:29 28° SW
Cosmos 2237 Rocket 2.2 23:08:37 42° SW 23:10:38 78° WNW 23:16:22 10° NNE
Cosmos 468 Rocket 4.0 23:13:08 73° ENE 23:13:08 73° ENE 23:18:06 10° NNE
Meteor 2-11 Rocket 4.3 23:12:02 67° SSE 23:12:51 81° E 23:18:59 10° N
CZ-4C R/B 2.8 23:07:59 10° NW 23:15:14 87° WSW 23:17:07 57° SSE
Cosmos 1386 Rocket 4.4 23:10:13 10° N 23:16:36 69° E 23:17:08 66° ESE
Cosmos 2278 Rocket 2.1 23:11:22 10° NNW 23:17:02 75° WSW 23:17:25 72° SSW
USA 234 3.5 23:17:39 48° SSW 23:18:45 53° SW 23:25:08 10° NW
Cosmos 2333 Rocket 3.0 23:13:47 11° SW 23:19:04 49° WNW 23:24:42 10° NNE
S3M 4.1 23:18:41 50° SSW 23:20:20 73° W 23:26:34 10° N
Cosmos 1633 4.4 23:20:11 10° NNW 23:22:39 29° WNW 23:22:39 29° WNW
Timation 1 Rocket 4.2 23:19:21 10° NNW 23:25:22 87° WSW 23:25:37 83° S
Cosmos 1536 4.1 23:23:28 10° N 23:26:02 38° N 23:26:02 38° N
Cosmos 1709 Rocket 4.3 23:21:25 10° N 23:27:37 52° ENE 23:27:37 52° ENE
Cosmos 2219 Rocket 3.9 23:27:32 10° WSW 23:32:27 31° WNW 23:37:25 10° N
SeaSat 1 3.1 23:38:34 49° W 23:38:34 49° W 23:42:48 10° NW
SL-19 R/B 4.4 23:39:15 10° N 23:45:13 74° WNW 23:45:24 73° W
H-2A R/B 3.1 23:47:20 34° W 23:47:20 34° W 23:51:37 10° NNW
Meteor 1-5 Rocket 4.3 23:41:28 10° NNW 23:46:56 75° WNW 23:46:56 75° WNW
